EW5963 Weather Reports


time (UTC)temp
C
wind
direction
speed
KPH
gust
KPH
rain 1hr
cm
rain 24hr
cm
rain mn
cm
humidity
%
barometer
mb
20260506182129 27 154 0.0 6.4 0.00 0.00 0.00 77 1009.0
20260506181629 27 75 4.8 6.4 0.00 0.00 0.00 77 1009.1
20260506181129 27 137 4.8 8.0 0.00 0.00 0.00 77 1009.2
20260506180628 27 114 3.2 8.0 0.00 0.00 0.00 77 1009.2
20260506180129 27 141 4.8 6.4 0.00 0.00 0.00 78 1009.2
20260506175629 27 58 0.0 6.4 0.00 0.00 0.00 78 1009.2
20260506175128 27 66 3.2 4.8 0.00 0.00 0.00 78 1009.3
20260506174629 27 80 0.0 4.8 0.00 0.00 0.00 78 1009.3
20260506174128 27 83 0.0 3.2 0.00 0.00 0.00 78 1009.3
20260506173631 27 123 0.0 6.4 0.00 0.00 0.00 78 1009.3
20260506173131 27 290 0.0 6.4 0.00 0.00 0.00 79 1009.3
20260506172630 27 190 3.2 6.4 0.00 0.00 0.00 79 1009.3
20260506172130 26 56 0.0 4.8 0.00 0.00 0.00 79 1009.4
20260506171630 26 178 3.2 6.4 0.00 0.00 0.00 79 1009.4
20260506171129 26 127 1.6 8.0 0.00 0.00 0.00 79 1009.3
20260506170130 26 206 3.2 6.4 0.00 0.00 0.00 79 1009.2
20260506165630 26 183 3.2 9.7 0.00 0.00 0.00 79 1009.1
20260506164630 26 111 4.8 11.3 0.00 0.00 0.00 79 1009.1
20260506164130 26 109 3.2 11.3 0.00 0.00 0.00 79 1009.1
20260506163128 26 131 6.4 20.9 0.00 0.00 0.00 79 1008.8
20260506162628 26 161 8.0 20.9 0.00 0.00 0.00 79 1008.8
20260506162130 26 149 9.7 22.5 0.00 0.00 0.00 79 1008.7
20260506161630 26 137 9.7 22.5 0.00 0.00 0.00 79 1008.7
20260506161129 26 125 9.7 20.9 0.00 0.00 0.00 78 1008.7
20260506160629 26 151 12.9 19.3 0.00 0.00 0.00 78 1008.7
20260506160129 26 157 6.4 19.3 0.00 0.00 0.00 78 1008.6
20260506155629 26 176 12.9 22.5 0.00 0.00 0.00 78 1008.5
20260506155129 26 202 11.3 22.5 0.00 0.00 0.00 78 1008.3
20260506154629 26 148 9.7 22.5 0.00 0.00 0.00 79 1008.3
20260506154128 26 186 11.3 22.5 0.00 0.00 0.00 79 1008.3
20260506153629 26 140 8.0 17.7 0.00 0.00 0.00 79 1008.3
20260506153129 26 120 11.3 20.9 0.00 0.00 0.00 79 1008.3
20260506152129 26 149 9.7 22.5 0.00 0.00 0.00 80 1008.2
20260506151629 26 124 12.9 22.5 0.00 0.00 0.00 80 1008.1
20260506150628 26 158 6.4 27.4 0.00 0.00 0.00 80 1008.1
20260506150128 26 142 12.9 27.4 0.00 0.00 0.00 80 1008.0
20260506145128 26 162 11.3 19.3 0.00 0.00 0.00 81 1007.9
20260506144629 26 169 12.9 22.5 0.00 0.00 0.00 81 1007.9
20260506144128 26 190 12.9 22.5 0.00 0.00 0.00 82 1007.9
20260506143628 25 140 12.9 20.9 0.00 0.00 0.00 82 1007.8
20260506143128 25 165 14.5 20.9 0.00 0.00 0.00 82 1007.7
20260506142628 25 140 11.3 20.9 0.00 0.00 0.00 83 1007.8
20260506142128 25 161 11.3 20.9 0.00 0.00 0.00 83 1007.9
20260506141627 25 113 12.9 22.5 0.00 0.00 0.00 83 1007.9
20260506141127 25 134 12.9 22.5 0.00 0.00 0.00 83 1007.9
20260506140627 25 200 11.3 22.5 0.00 0.00 0.00 83 1007.9
20260506140127 25 138 11.3 22.5 0.00 0.00 0.00 83 1007.8
20260506135627 25 127 16.1 22.5 0.00 0.00 0.00 83 1007.8
20260506135127 25 116 9.7 22.5 0.00 0.00 0.00 84 1007.8
20260506134627 24 110 8.0 17.7 0.00 0.00 0.00 84 1007.8
20260506134127 24 147 9.7 20.9 0.00 0.00 0.00 84 1007.8
20260506133627 24 110 11.3 20.9 0.00 0.00 0.00 84 1007.7
20260506133127 24 134 8.0 17.7 0.00 0.00 0.00 84 1007.8
20260506132626 24 124 12.9 17.7 0.00 0.00 0.00 84 1007.8
20260506132127 24 134 8.0 16.1 0.00 0.00 0.00 84 1007.8
20260506131627 24 127 6.4 16.1 0.00 0.00 0.00 84 1007.9
20260506131126 24 138 8.0 16.1 0.00 0.00 0.00 84 1007.9
20260506130126 24 73 9.7 16.1 0.00 0.00 0.00 84 1007.8
20260506125626 24 0 6.4 19.3 0.00 0.00 0.00 84 1007.8
20260506124626 23 114 6.4 16.1 0.00 0.00 0.00 84 1007.7
20260506124125 23 102 9.7 16.1 0.00 0.00 0.00 84 1007.6
20260506123126 23 94 9.7 16.1 0.00 0.00 0.00 84 1007.5
20260506122625 23 94 9.7 17.7 0.00 0.00 0.00 84 1007.4
20260506121625 23 106 9.7 19.3 0.00 0.00 0.00 84 1007.5
20260506121128 23 120 9.7 17.7 0.00 0.00 0.00 84 1007.5
20260506120625 23 111 11.3 19.3 0.00 0.00 0.00 84 1007.5
20260506120125 23 104 12.9 19.3 0.00 0.00 0.00 84 1007.3
20260506115625 23 102 8.0 14.5 0.00 0.00 0.00 84 1007.3
20260506115125 23 93 9.7 14.5 0.00 0.00 0.00 84 1007.3
20260506114625 23 92 9.7 14.5 0.00 0.00 0.00 84 1007.3
20260506114123 23 120 8.0 14.5 0.00 0.00 0.00 84 1007.3
20260506113622 23 113 6.4 11.3 0.00 0.00 0.00 84 1007.4
20260506113123 23 106 8.0 11.3 0.00 0.00 0.00 84 1007.3
20260506112125 23 121 9.7 17.7 0.00 0.00 0.00 84 1007.3
20260506111624 23 135 6.4 17.7 0.00 0.00 0.00 83 1007.2
20260506111124 23 107 8.0 14.5 0.00 0.00 0.00 83 1007.2
20260506110624 23 0 8.0 16.1 0.00 0.00 0.00 83 1007.2
20260506110123 23 97 9.7 16.1 0.00 0.00 0.00 83 1007.2
20260506105624 23 116 9.7 14.5 0.00 0.00 0.00 83 1007.2
20260506105124 23 97 6.4 14.5 0.00 0.00 0.00 83 1007.3
20260506104624 23 123 6.4 14.5 0.00 0.00 0.00 83 1007.2
20260506104123 23 104 8.0 16.1 0.00 0.00 0.00 83 1007.2
20260506103624 23 92 9.7 16.1 0.00 0.00 0.00 83 1007.3
20260506103123 23 109 8.0 16.1 0.00 0.00 0.00 83 1007.3
20260506102124 23 103 6.4 11.3 0.00 0.00 0.00 82 1007.4
20260506101623 23 94 8.0 14.5 0.00 0.00 0.00 82 1007.3
20260506100623 24 93 8.0 14.5 0.00 0.00 0.00 82 1007.3
20260506100123 24 107 8.0 14.5 0.00 0.00 0.00 82 1007.2
20260506095123 24 107 6.4 14.5 0.00 0.00 0.00 82 1007.2
20260506094622 24 102 8.0 14.5 0.00 0.00 0.00 81 1007.2
20260506093623 24 0 8.0 16.1 0.00 0.00 0.00 81 1007.3
20260506093122 24 120 9.7 14.5 0.00 0.00 0.00 81 1007.3
20260506092122 24 76 6.4 17.7 0.00 0.00 0.00 81 1007.2
20260506091622 24 113 8.0 17.7 0.00 0.00 0.00 81 1007.3
20260506090622 24 117 8.0 17.7 0.00 0.00 0.00 81 1007.3
20260506090122 24 133 9.7 17.7 0.00 0.00 0.00 81 1007.2
20260506085122 24 127 8.0 16.1 0.00 0.00 0.00 81 1007.1
20260506084621 24 176 6.4 19.3 0.00 0.00 0.00 81 1007.0
20260506084122 24 147 9.7 20.9 0.00 0.00 0.00 81 1007.0
20260506083621 24 128 8.0 20.9 0.00 0.00 0.00 81 1006.9
20260506083121 24 128 9.7 19.3 0.00 0.00 0.00 81 1007.0
20260506082622 24 124 9.7 19.3 0.00 0.00 0.00 81 1007.0
20260506082121 24 87 9.7 20.9 0.00 0.00 0.00 81 1007.1
20260506081622 24 116 11.3 22.5 0.00 0.00 0.00 81 1007.1
20260506081121 24 158 14.5 22.5 0.00 0.00 0.00 81 1007.1
20260506080621 24 121 9.7 20.9 0.00 0.00 0.00 81 1007.0
20260506080121 24 110 12.9 19.3 0.00 0.00 0.00 81 1007.1
20260506073121 24 116 14.5 25.7 0.00 0.00 0.00 82 1007.2
20260506072620 24 110 12.9 24.1 0.00 0.00 0.00 82 1007.2
20260506072120 24 131 8.0 19.3 0.00 0.00 0.00 82 1007.3
20260506071620 24 85 8.0 19.3 0.00 0.00 0.00 82 1007.3
20260506071122 24 135 8.0 19.3 0.00 0.00 0.00 82 1007.3
20260506070620 24 140 9.7 25.7 0.00 0.00 0.00 82 1007.3
20260506070120 24 135 12.9 25.7 0.00 0.00 0.00 82 1007.3
20260506062119 24 130 8.0 19.3 0.00 0.00 0.00 82 1007.6
20260506061620 24 113 8.0 27.4 0.00 0.00 0.00 82 1007.7
20260506061119 24 131 9.7 27.4 0.00 0.00 0.00 82 1007.6
20260506060118 24 125 12.9 29.0 0.00 0.00 0.00 82 1007.6
20260506050618 24 133 14.5 22.5 0.00 0.00 0.00 82 1008.0
20260506050118 24 144 9.7 22.5 0.00 0.00 0.00 82 1008.0
20260506045117 24 144 9.7 20.9 0.00 0.00 0.00 82 1008.1
20260506044618 24 130 9.7 24.1 0.00 0.00 0.00 82 1007.9
20260506043617 24 148 11.3 29.0 0.00 0.00 0.00 82 1007.9
20260506043117 24 145 17.7 29.0 0.00 0.00 0.00 82 1007.9
20260506042618 24 110 12.9 20.9 0.00 0.00 0.00 82 1007.8
20260506042118 24 151 14.5 20.9 0.00 0.00 0.00 82 1007.9
20260506041617 24 159 9.7 24.1 0.00 0.00 0.00 82 1007.8
20260506041117 24 151 11.3 24.1 0.00 0.00 0.00 82 1007.7
20260506040617 24 141 12.9 22.5 0.00 0.00 0.00 81 1007.6
20260506040117 24 148 11.3 27.4 0.00 0.00 0.00 81 1007.5
20260506035617 24 110 14.5 27.4 0.00 0.00 0.00 81 1007.3
20260506035117 24 148 16.1 27.4 0.00 0.00 0.00 81 1007.1
20260506034616 24 154 11.3 20.9 0.00 0.00 0.00 81 1007.1
20260506034116 24 130 12.9 24.1 0.00 0.00 0.00 81 1007.1
20260506033617 24 158 14.5 25.7 0.00 0.00 0.00 81 1007.0
20260506033116 24 123 14.5 25.7 0.00 0.00 0.00 81 1006.9
20260506032616 24 145 14.5 22.5 0.00 0.00 0.00 81 1006.8
20260506032117 24 127 12.9 25.7 0.00 0.00 0.00 81 1006.7
20260506031616 24 190 9.7 25.7 0.00 0.00 0.00 81 1006.7
20260506031116 24 130 9.7 25.7 0.00 0.00 0.00 80 1006.7
20260506030616 24 127 11.3 22.5 0.00 0.00 0.00 80 1006.7
20260506030115 24 127 14.5 25.7 0.00 0.00 0.00 80 1006.6
20260506025615 25 127 19.3 25.7 0.00 0.00 0.00 80 1006.5
20260506025116 25 124 12.9 27.4 0.00 0.00 0.00 80 1006.5
20260506024615 25 128 16.1 27.4 0.00 0.00 0.00 80 1006.4
20260506024115 25 135 11.3 30.6 0.00 0.00 0.00 80 1006.4
20260506023616 25 151 16.1 30.6 0.00 0.00 0.00 80 1006.2
20260506023115 25 137 14.5 24.1 0.00 0.00 0.00 80 1006.3
20260506022615 25 159 14.5 24.1 0.00 0.00 0.00 79 1006.3
20260506022115 25 151 12.9 29.0 0.00 0.00 0.00 79 1006.2
20260506021615 25 149 12.9 29.0 0.00 0.00 0.00 79 1006.3
20260506021114 25 137 14.5 24.1 0.00 0.00 0.00 79 1006.1
20260506020615 25 151 17.7 25.7 0.00 0.00 0.00 79 1006.0
20260506020114 25 107 9.7 25.7 0.00 0.00 0.00 78 1006.0
20260506015112 25 94 14.5 29.0 0.00 0.00 0.00 78 1006.0
20260506014613 25 0 14.5 24.1 0.00 0.00 0.00 78 1006.0
20260506013615 26 114 12.9 20.9 0.00 0.00 0.00 78 1005.8
20260506013114 26 144 12.9 25.7 0.00 0.00 0.00 77 1005.8
20260506012114 26 137 12.9 30.6 0.00 0.00 0.00 77 1005.8
20260506011614 26 145 17.7 30.6 0.00 0.00 0.00 77 1005.7
20260506010615 26 123 14.5 22.5 0.00 0.00 0.00 76 1005.6
20260506010113 26 134 14.5 27.4 0.00 0.00 0.00 76 1005.5
20260506005114 26 141 12.9 32.2 0.00 0.00 0.00 75 1005.3
20260506004613 27 134 17.7 32.2 0.00 0.00 0.00 75 1005.3
20260506003613 27 157 17.7 33.8 0.00 0.00 0.00 74 1005.3
20260506003113 27 140 20.9 33.8 0.00 0.00 0.00 74 1005.2
20260506002113 27 168 20.9 30.6 0.00 0.00 0.00 73 1005.1
20260506001613 27 154 17.7 32.2 0.00 0.00 0.00 73 1005.0
20260506001112 27 135 17.7 32.2 0.00 0.00 0.00 73 1005.0
20260506000613 27 140 14.5 32.2 0.00 0.00 0.00 73 1004.9
20260506000113 28 169 17.7 33.8 0.00 0.00 0.00 73 1004.8
20260505235613 28 140 17.7 33.8 0.00 0.00 0.00 73 1004.8
20260505235113 28 111 17.7 30.6 0.00 0.00 0.00 73 1004.8
20260505234613 28 110 19.3 32.2 0.00 0.00 0.00 73 1004.9
20260505234113 28 137 20.9 32.2 0.00 0.00 0.00 73 1004.6
20260505233612 28 0 19.3 37.0 0.00 0.00 0.00 73 1004.6
20260505232612 28 114 16.1 45.1 0.00 0.00 0.00 72 1004.8
20260505232112 28 121 22.5 45.1 0.00 0.00 0.00 72 1004.7
20260505231112 28 125 17.7 35.4 0.00 0.00 0.00 72 1004.6
20260505230612 28 121 20.9 33.8 0.00 0.00 0.00 72 1004.5
20260505225612 28 96 20.9 35.4 0.00 0.00 0.00 71 1004.6
20260505225112 28 110 17.7 35.4 0.00 0.00 0.00 71 1004.6
20260505224611 28 111 20.9 33.8 0.00 0.00 0.00 71 1004.7
20260505224111 28 82 17.7 33.8 0.00 0.00 0.00 71 1004.5
20260505223111 29 93 20.9 38.6 0.00 0.00 0.00 70 1004.6
20260505222611 29 109 12.9 38.6 0.00 0.00 0.00 70 1004.6
20260505221611 30 61 22.5 38.6 0.00 0.00 0.00 68 1004.6
20260505221111 30 124 17.7 33.8 0.00 0.00 0.00 68 1004.5
20260505220111 30 135 16.1 35.4 0.00 0.00 0.00 67 1004.6
20260505215611 30 110 14.5 35.4 0.00 0.00 0.00 67 1004.7
20260505215110 30 110 17.7 35.4 0.00 0.00 0.00 67 1004.7
20260505214610 31 147 16.1 32.2 0.00 0.00 0.00 65 1004.9
20260505213610 31 147 17.7 33.8 0.00 0.00 0.00 64 1004.8
20260505213111 31 121 19.3 33.8 0.00 0.00 0.00 64 1004.8
20260505212110 32 138 16.1 24.1 0.00 0.00 0.00 62 1004.8
20260505211609 31 204 14.5 22.5 0.00 0.00 0.00 63 1005.0
20260505210610 31 154 11.3 27.4 0.00 0.00 0.00 63 1005.2
20260505210110 31 114 17.7 24.1 0.00 0.00 0.00 62 1005.3
20260505205608 31 152 14.5 24.1 0.00 0.00 0.00 62 1005.5
20260505205109 31 73 14.5 24.1 0.00 0.00 0.00 62 1005.5
20260505204609 31 142 12.9 24.1 0.00 0.00 0.00 62 1005.6
20260505204109 31 176 16.1 24.1 0.00 0.00 0.00 61 1005.7
20260505203609 31 147 12.9 22.5 0.00 0.00 0.00 61 1005.8
20260505203109 31 154 11.3 22.5 0.00 0.00 0.00 61 1005.8
20260505202609 31 104 12.9 25.7 0.00 0.00 0.00 62 1005.9
20260505202109 31 155 14.5 27.4 0.00 0.00 0.00 60 1006.0
20260505201109 31 147 11.3 19.3 0.00 0.00 0.00 61 1006.1
20260505200608 31 148 11.3 25.7 0.00 0.00 0.00 60 1006.1
20260505200108 31 161 8.0 25.7 0.00 0.00 0.00 60 1006.2
20260505195608 31 214 12.9 25.7 0.00 0.00 0.00 61 1006.1
20260505195109 31 161 8.0 19.3 0.00 0.00 0.00 63 1006.3
20260505194608 31 125 14.5 24.1 0.00 0.00 0.00 62 1006.3
20260505194109 31 192 12.9 27.4 0.00 0.00 0.00 62 1006.3
20260505193608 31 131 17.7 27.4 0.00 0.00 0.00 61 1006.4
20260505193108 31 142 12.9 17.7 0.00 0.00 0.00 62 1006.5
20260505192608 31 161 9.7 22.5 0.00 0.00 0.00 63 1006.6
20260505192107 31 166 8.0 22.5 0.00 0.00 0.00 62 1006.9
20260505191103 31 196 6.4 22.5 0.00 0.00 0.00 64 1006.9
20260505190604 31 152 9.7 19.3 0.00 0.00 0.00 63 1006.9
20260505185601 31 158 8.0 24.1 0.00 0.00 0.00 63 1006.9
20260505185101 31 195 9.7 24.1 0.00 0.00 0.00 64 1007.0
20260505184100 30 283 8.0 25.7 0.00 0.00 0.00 66 1007.1
20260505183601 30 157 16.1 27.4 0.00 0.00 0.00 65 1007.1
20260505183103 30 161 8.0 27.4 0.00 0.00 0.00 66 1007.1
20260505182600 30 175 8.0 24.1 0.00 0.00 0.00 66 1007.2